EW8816 Weather Reports


Display with metric or nautical units.
time (UTC)temp
F
wind
direction
speed
MPH
gust
MPH
rain 1hr
in
rain 24hr
in
rain mn
in
humidity
%
barometer
mb
20240618180523 92 6 1.0 3.0 0.00 0.00 0.00 54 1024.7
20240618180030 92 259 1.0 3.0 0.00 0.00 0.00 53 1024.9
20240618175523 92 354 0.0 3.0 0.00 0.00 0.00 53 1024.8
20240618175023 92 74 1.0 3.0 0.00 0.00 0.00 53 1024.9
20240618174529 92 76 1.0 2.0 0.00 0.00 0.00 53 1024.8
20240618174023 92 0 0.0 2.0 0.00 0.00 0.00 55 1024.8
20240618173522 92 77 0.0 2.0 0.00 0.00 0.00 55 1024.9
20240618173029 92 30 0.0 2.0 0.00 0.00 0.00 56 1024.9
20240618172522 92 0 0.0 2.0 0.00 0.00 0.00 56 1024.9
20240618172022 91 143 0.0 2.0 0.00 0.00 0.00 56 1025.1
20240618171525 91 302 1.0 3.0 0.00 0.00 0.00 57 1025.0
20240618171020 90 0 0.0 3.0 0.00 0.00 0.00 57 1025.1
20240618170522 90 46 1.0 3.0 0.00 0.00 0.00 55 1025.2
20240618170026 90 58 0.0 2.0 0.00 0.00 0.00 57 1025.2
20240618165522 90 0 0.0 2.0 0.00 0.00 0.00 57 1025.1
20240618165022 90 47 1.0 2.0 0.00 0.00 0.00 56 1025.3
20240618164531 90 0 0.0 2.0 0.00 0.00 0.00 58 1025.2
20240618164023 89 0 0.0 3.0 0.00 0.00 0.00 61 1025.3
20240618163522 89 68 1.0 3.0 0.00 0.00 0.00 58 1025.3
20240618163028 90 63 1.0 3.0 0.00 0.00 0.00 61 1025.2
20240618162523 90 340 0.0 2.0 0.00 0.00 0.00 59 1025.4
20240618162021 90 0 0.0 2.0 0.00 0.00 0.00 59 1025.3
20240618161534 89 285 1.0 2.0 0.00 0.00 0.00 59 1025.4
20240618161024 89 299 0.0 1.0 0.00 0.00 0.00 60 1025.4
20240618160521 89 299 0.0 1.0 0.00 0.00 0.00 59 1025.3
20240618160024 89 0 0.0 1.0 0.00 0.00 0.00 58 1025.5
20240618155523 89 337 0.0 1.0 0.00 0.00 0.00 57 1025.6
20240618155022 89 6 0.0 1.0 0.00 0.00 0.00 59 1025.6
20240618154536 89 0 0.0 1.0 0.00 0.00 0.00 60 1025.6
20240618154023 88 325 0.0 1.0 0.00 0.00 0.00 58 1025.7
20240618153522 89 1 0.0 2.0 0.00 0.00 0.00 60 1025.7
20240618153025 88 270 0.0 2.0 0.00 0.00 0.00 63 1025.7
20240618152523 87 270 0.0 1.0 0.00 0.00 0.00 62 1025.8
20240618152024 86 0 0.0 1.0 0.00 0.00 0.00 64 1025.8
20240618151537 85 270 0.0 1.0 0.00 0.00 0.00 63 1025.8
20240618151022 85 270 0.0 2.0 0.00 0.00 0.00 64 1025.8
20240618150521 84 270 0.0 2.0 0.00 0.00 0.00 65 1025.9
20240618150024 84 269 0.0 2.0 0.00 0.00 0.00 66 1025.9
20240618145523 84 0 0.0 2.0 0.00 0.00 0.00 66 1025.8
20240618145018 84 298 0.0 1.0 0.00 0.00 0.00 66 1025.9
20240618144536 84 300 0.0 1.0 0.00 0.00 0.00 67 1025.9
20240618144021 83 0 0.0 1.0 0.00 0.00 0.00 69 1025.8
20240618143518 83 0 0.0 1.0 0.00 0.00 0.00 67 1026.0
20240618143020 82 0 0.0 1.0 0.00 0.00 0.00 68 1025.9
20240618142521 82 300 0.0 2.0 0.00 0.00 0.00 69 1026.0
20240618142018 82 300 1.0 2.0 0.00 0.00 0.00 69 1025.9
20240618141529 82 0 0.0 1.0 0.00 0.00 0.00 70 1025.9
20240618141019 82 278 0.0 1.0 0.00 0.00 0.00 69 1025.9
20240618140519 81 278 0.0 1.0 0.00 0.00 0.00 71 1025.9
20240618140021 81 278 0.0 1.0 0.00 0.00 0.00 71 1025.9
20240618135518 80 0 0.0 1.0 0.00 0.00 0.00 72 1025.9
20240618135019 79 0 0.0 1.0 0.00 0.00 0.00 72 1025.9
20240618134520 79 278 0.0 1.0 0.00 0.00 0.00 72 1025.9
20240618134019 78 0 0.0 1.0 0.00 0.00 0.00 73 1025.9
20240618133524 78 0 0.0 1.0 0.00 0.00 0.00 74 1025.8
20240618133023 77 278 0.0 1.0 0.00 0.00 0.00 75 1025.8
20240618132518 76 0 0.0 1.0 0.00 0.00 0.00 77 1025.9
20240618132024 76 278 0.0 1.0 0.00 0.00 0.00 78 1025.8
20240618131527 75 0 0.0 1.0 0.00 0.00 0.00 79 1025.9
20240618131018 74 278 0.0 2.0 0.00 0.00 0.00 80 1025.8
20240618130519 73 278 0.0 2.0 0.00 0.00 0.00 81 1025.8
20240618130032 72 0 0.0 1.0 0.00 0.00 0.00 81 1025.7
20240618125521 72 0 0.0 1.0 0.00 0.00 0.00 82 1025.8
20240618125021 72 278 0.0 2.0 0.00 0.00 0.00 81 1025.7
20240618124530 71 278 0.0 2.0 0.00 0.00 0.00 83 1025.8
20240618124028 71 311 0.0 1.0 0.00 0.00 0.00 84 1025.8
20240618123519 70 0 0.0 1.0 0.00 0.00 0.00 84 1025.8
20240618123024 70 311 0.0 1.0 0.00 0.00 0.00 85 1025.7
20240618122519 70 0 0.0 1.0 0.00 0.00 0.00 85 1025.7
20240618122018 70 311 0.0 1.0 0.00 0.00 0.00 85 1025.6
20240618121522 69 0 0.0 1.0 0.00 0.00 0.00 85 1025.6
20240618121024 69 0 0.0 1.0 0.00 0.00 0.00 85 1025.6
20240618120519 69 0 0.0 0.0 0.00 0.00 0.00 85 1025.6
20240618120020 69 0 0.0 0.0 0.00 0.00 0.00 85 1025.6
20240618115522 69 0 0.0 0.0 0.00 0.00 0.00 85 1025.5
20240618115020 69 0 0.0 0.0 0.00 0.00 0.00 85 1025.3
20240618114524 69 0 0.0 0.0 0.00 0.00 0.00 85 1025.3
20240618114023 69 0 0.0 1.0 0.00 0.00 0.00 85 1025.3
20240618113524 68 0 0.0 1.0 0.00 0.00 0.00 86 1025.3
20240618113029 68 0 0.0 0.0 0.00 0.00 0.00 86 1025.2
20240618112522 68 0 0.0 0.0 0.00 0.00 0.00 86 1025.1
20240618112023 67 0 0.0 0.0 0.00 0.00 0.00 87 1025.2
20240618111523 67 0 0.0 0.0 0.00 0.00 0.00 87 1025.2
20240618111023 67 0 0.0 0.0 0.00 0.00 0.00 87 1025.1
20240618110523 67 0 0.0 0.0 0.00 0.00 0.00 87 1025.1
20240618110026 66 0 0.0 0.0 0.00 0.00 0.00 87 1025.0
20240618105524 66 0 0.0 1.0 0.00 0.00 0.00 87 1024.9
20240618105022 66 0 0.0 1.0 0.00 0.00 0.00 88 1024.8
20240618104524 66 0 0.0 1.0 0.00 0.00 0.00 89 1024.8
20240618104023 66 0 0.0 0.0 0.00 0.00 0.00 88 1024.7
20240618103522 65 0 0.0 0.0 0.00 0.00 0.00 89 1024.7
20240618103024 65 0 0.0 0.0 0.00 0.00 0.00 89 1024.7
20240618102522 65 0 0.0 0.0 0.00 0.00 0.00 89 1024.6
20240618102022 65 0 0.0 0.0 0.00 0.00 0.00 89 1024.5
20240618101534 65 0 0.0 0.0 0.00 0.00 0.00 90 1024.2
20240618101021 64 0 0.0 0.0 0.00 0.00 0.00 90 1024.2
20240618100522 64 0 0.0 0.0 0.00 0.00 0.00 90 1024.1
20240618100023 64 0 0.0 0.0 0.00 0.00 0.00 90 1024.1
20240618095523 64 0 0.0 0.0 0.00 0.00 0.00 90 1024.1
20240618095022 64 0 0.0 0.0 0.00 0.00 0.00 90 1024.1
20240618094601 64 0 0.0 0.0 0.00 0.00 0.00 90 1024.1
20240618094025 64 0 0.0 0.0 0.00 0.00 0.00 90 1024.0
20240618093523 64 0 0.0 0.0 0.00 0.00 0.00 90 1024.0
20240618093025 64 0 0.0 0.0 0.00 0.00 0.00 90 1023.8
20240618092522 64 0 0.0 0.0 0.00 0.00 0.00 90 1023.9
20240618092023 63 0 0.0 0.0 0.00 0.00 0.00 91 1023.7
20240618091533 63 0 0.0 0.0 0.00 0.00 0.00 91 1023.6
20240618091022 63 0 0.0 0.0 0.00 0.00 0.00 90 1023.5
20240618090522 63 0 0.0 0.0 0.00 0.00 0.00 90 1023.6
20240618090026 64 0 0.0 0.0 0.00 0.00 0.00 90 1023.4
20240618085522 64 0 0.0 0.0 0.00 0.00 0.00 90 1023.3
20240618085023 64 0 0.0 0.0 0.00 0.00 0.00 90 1023.2
20240618084522 64 0 0.0 0.0 0.00 0.00 0.00 90 1023.1
20240618084023 64 0 0.0 0.0 0.00 0.00 0.00 90 1023.0
20240618083525 64 0 0.0 0.0 0.00 0.00 0.00 90 1023.0
20240618083032 64 0 0.0 0.0 0.00 0.00 0.00 90 1022.8
20240618082523 64 0 0.0 0.0 0.00 0.00 0.00 90 1022.9
20240618082024 64 0 0.0 0.0 0.00 0.00 0.00 90 1022.8
20240618081528 64 0 0.0 0.0 0.00 0.00 0.00 90 1022.8
20240618081023 64 0 0.0 0.0 0.00 0.00 0.00 90 1022.8
20240618080523 64 0 0.0 0.0 0.00 0.00 0.00 90 1022.8
20240618080022 64 0 0.0 0.0 0.00 0.00 0.00 89 1022.8
20240618075522 64 0 0.0 0.0 0.00 0.00 0.00 89 1022.8
20240618075022 64 0 0.0 0.0 0.00 0.00 0.00 89 1022.8
20240618074524 64 0 0.0 0.0 0.00 0.00 0.00 89 1022.8
20240618074021 64 0 0.0 0.0 0.00 0.00 0.00 89 1022.7
20240618073522 65 0 0.0 0.0 0.00 0.00 0.00 89 1022.8
20240618073044 65 0 0.0 0.0 0.00 0.00 0.00 89 1022.9
20240618072520 65 0 0.0 0.0 0.00 0.00 0.00 89 1022.8
20240618072022 65 0 0.0 0.0 0.00 0.00 0.00 89 1022.8
20240618071525 65 0 0.0 0.0 0.00 0.00 0.00 89 1022.8
20240618071021 65 0 0.0 0.0 0.00 0.00 0.00 89 1022.7
20240618070522 65 0 0.0 0.0 0.00 0.00 0.00 88 1022.7
20240618070033 65 0 0.0 0.0 0.00 0.00 0.00 88 1022.7
20240618065523 65 0 0.0 0.0 0.00 0.00 0.00 88 1022.7
20240618065023 65 0 0.0 0.0 0.00 0.00 0.00 88 1022.6
20240618064530 66 0 0.0 0.0 0.00 0.00 0.00 88 1022.7
20240618064025 66 0 0.0 0.0 0.00 0.00 0.00 87 1022.7
20240618063527 66 0 0.0 0.0 0.00 0.00 0.00 87 1022.6
20240618063025 66 0 0.0 0.0 0.00 0.00 0.00 87 1022.6
20240618062525 66 0 0.0 0.0 0.00 0.00 0.00 87 1022.6
20240618062022 66 0 0.0 0.0 0.00 0.00 0.00 86 1022.6
20240618061537 66 0 0.0 0.0 0.00 0.00 0.00 86 1022.7
20240618061023 66 0 0.0 0.0 0.00 0.00 0.00 86 1022.8
20240618060522 66 0 0.0 0.0 0.00 0.00 0.00 86 1022.7
20240618060027 66 0 0.0 0.0 0.00 0.00 0.00 85 1022.7
20240618055523 67 0 0.0 0.0 0.00 0.00 0.00 85 1022.7
20240618055024 67 0 0.0 0.0 0.00 0.00 0.00 85 1022.7
20240618054528 67 0 0.0 0.0 0.00 0.00 0.00 85 1022.8
20240618054020 67 0 0.0 0.0 0.00 0.00 0.00 85 1022.7
20240618053523 67 0 0.0 0.0 0.00 0.00 0.00 84 1022.7
20240618053023 67 0 0.0 0.0 0.00 0.00 0.00 84 1022.7
20240618052523 68 0 0.0 0.0 0.00 0.00 0.00 84 1022.7
20240618052022 68 0 0.0 0.0 0.00 0.00 0.00 84 1022.8
20240618051523 68 0 0.0 0.0 0.00 0.00 0.00 83 1022.7
20240618051023 68 0 0.0 0.0 0.00 0.00 0.00 83 1022.7
20240618050523 68 0 0.0 0.0 0.00 0.00 0.00 83 1022.7
20240618050034 68 0 0.0 0.0 0.00 0.00 0.00 83 1022.6
20240618045523 68 0 0.0 0.0 0.00 0.00 0.00 82 1022.6
20240618045023 68 0 0.0 0.0 0.00 0.00 0.00 82 1022.6
20240618044524 68 0 0.0 1.0 0.00 0.00 0.00 82 1022.7
20240618044023 69 0 0.0 1.0 0.00 0.00 0.00 81 1022.7
20240618043523 69 0 0.0 1.0 0.00 0.00 0.00 81 1022.7
20240618043024 69 0 0.0 0.0 0.00 0.00 0.00 81 1022.7
20240618042521 69 0 0.0 0.0 0.00 0.00 0.00 80 1022.7
20240618042025 69 0 0.0 0.0 0.00 0.00 0.00 80 1022.7
20240618041524 70 0 0.0 0.0 0.00 0.00 0.00 80 1022.8
20240618041022 70 0 0.0 0.0 0.00 0.00 0.00 79 1022.8
20240618040522 70 0 0.0 0.0 0.00 0.00 0.00 79 1022.8
20240618040029 70 0 0.0 0.0 0.00 0.00 0.00 79 1022.9
20240618035522 70 0 0.0 1.0 0.00 0.00 0.00 78 1022.9
20240618035024 70 0 0.0 1.0 0.00 0.00 0.00 78 1022.9
20240618034525 70 310 0.0 1.0 0.00 0.00 0.00 78 1022.8
20240618034022 70 0 0.0 1.0 0.00 0.00 0.00 77 1022.9
20240618033522 70 0 0.0 1.0 0.00 0.00 0.00 77 1022.8
20240618033049 70 0 0.0 1.0 0.00 0.00 0.00 77 1022.9
20240618032522 71 0 0.0 1.0 0.00 0.00 0.00 76 1022.8
20240618032022 71 0 0.0 1.0 0.00 0.00 0.00 76 1022.7
20240618031523 71 283 0.0 1.0 0.00 0.00 0.00 76 1022.5
20240618031021 71 283 0.0 1.0 0.00 0.00 0.00 76 1022.5
20240618030523 71 0 0.0 1.0 0.00 0.00 0.00 76 1022.6
20240618030025 71 0 0.0 1.0 0.00 0.00 0.00 75 1022.6
20240618025525 71 0 0.0 1.0 0.00 0.00 0.00 75 1022.6
20240618025022 71 0 0.0 1.0 0.00 0.00 0.00 75 1022.8
20240618024523 71 0 0.0 1.0 0.00 0.00 0.00 74 1022.8
20240618024023 71 0 0.0 1.0 0.00 0.00 0.00 74 1022.8
20240618023522 71 0 0.0 1.0 0.00 0.00 0.00 74 1022.7
20240618023025 72 0 0.0 1.0 0.00 0.00 0.00 74 1022.8
20240618022522 72 274 0.0 1.0 0.00 0.00 0.00 73 1022.8
20240618022023 72 0 0.0 1.0 0.00 0.00 0.00 73 1022.6
20240618021527 72 0 0.0 1.0 0.00 0.00 0.00 73 1022.7
20240618021023 72 0 0.0 1.0 0.00 0.00 0.00 72 1022.7
20240618020522 72 0 0.0 1.0 0.00 0.00 0.00 72 1022.6
20240618020023 72 289 0.0 1.0 0.00 0.00 0.00 72 1022.7
20240618015522 72 0 0.0 1.0 0.00 0.00 0.00 72 1022.6
20240618015022 72 0 0.0 2.0 0.00 0.00 0.00 72 1022.8
20240618014523 72 0 0.0 2.0 0.00 0.00 0.00 72 1022.8
20240618014022 73 0 0.0 2.0 0.00 0.00 0.00 72 1022.7
20240618013523 73 0 0.0 3.0 0.00 0.00 0.00 72 1022.7
20240618013025 73 0 0.0 3.0 0.00 0.00 0.00 72 1022.6
20240618012522 73 288 0.0 1.0 0.00 0.00 0.00 72 1022.6
20240618012026 73 289 0.0 1.0 0.00 0.00 0.00 72 1022.4
20240618011523 73 0 0.0 1.0 0.00 0.00 0.00 72 1022.4
20240618011022 73 0 0.0 1.0 0.00 0.00 0.00 72 1022.4
20240618010522 74 0 0.0 1.0 0.00 0.00 0.00 72 1022.4
20240618010028 74 283 0.0 1.0 0.00 0.00 0.00 73 1022.4
20240618005523 74 329 0.0 1.0 0.00 0.00 0.00 73 1022.4
20240618005023 74 0 0.0 1.0 0.00 0.00 0.00 73 1022.5
20240618004533 74 0 0.0 1.0 0.00 0.00 0.00 73 1022.4
20240618004020 75 0 0.0 1.0 0.00 0.00 0.00 72 1022.4
20240618003526 75 280 0.0 1.0 0.00 0.00 0.00 72 1022.4
20240618003025 75 282 0.0 1.0 0.00 0.00 0.00 72 1022.5
20240618002523 75 35 0.0 1.0 0.00 0.00 0.00 72 1022.4
20240618002026 75 0 0.0 1.0 0.00 0.00 0.00 72 1022.3
20240618001525 75 0 0.0 1.0 0.00 0.00 0.00 71 1022.3
20240618001022 76 0 0.0 1.0 0.00 0.00 0.00 71 1022.3
20240618000523 76 37 0.0 1.0 0.00 0.00 0.00 71 1022.3
20240618000040 76 0 0.0 2.0 0.00 0.00 0.00 70 1022.4
20240617235522 76 0 0.0 2.0 0.00 0.00 0.00 69 1022.3
20240617235022 77 302 0.0 1.0 0.00 0.00 0.00 70 1022.2
20240617234529 77 0 0.0 2.0 0.00 0.00 0.00 69 1022.2
20240617234026 77 307 0.0 2.0 0.00 0.00 0.00 69 1022.2
20240617233523 77 306 0.0 1.0 0.00 0.00 0.00 70 1022.1
20240617233024 77 316 0.0 1.0 0.00 0.00 0.00 70 1022.0
20240617232524 77 0 0.0 1.0 0.00 0.00 0.00 69 1022.0
20240617232023 78 51 0.0 1.0 0.00 0.00 0.00 70 1021.8
20240617231524 78 311 0.0 1.0 0.00 0.00 0.00 69 1021.9
20240617231023 78 0 0.0 1.0 0.00 0.00 0.00 69 1021.8
20240617230523 78 303 0.0 2.0 0.00 0.00 0.00 69 1021.7
20240617230031 78 0 0.0 2.0 0.00 0.00 0.00 68 1021.6
20240617225523 78 0 0.0 2.0 0.00 0.00 0.00 68 1021.6
20240617225024 79 0 0.0 2.0 0.00 0.00 0.00 68 1021.6
20240617224524 79 304 0.0 2.0 0.00 0.00 0.00 68 1021.7
20240617224023 79 262 0.0 2.0 0.00 0.00 0.00 68 1021.8
20240617223522 79 0 0.0 3.0 0.00 0.00 0.00 68 1021.7
20240617223024 79 0 0.0 3.0 0.00 0.00 0.00 67 1021.5
20240617222523 79 0 0.0 4.0 0.00 0.00 0.00 67 1021.6
20240617222022 79 287 1.0 4.0 0.00 0.00 0.00 66 1021.5
20240617221525 79 0 0.0 2.0 0.00 0.00 0.00 66 1021.6
20240617221022 80 258 0.0 3.0 0.00 0.00 0.00 66 1021.4
20240617220522 80 0 0.0 3.0 0.00 0.00 0.00 66 1021.3
20240617220030 80 324 0.0 3.0 0.00 0.00 0.00 65 1021.3
20240617215523 80 263 1.0 3.0 0.00 0.00 0.00 66 1021.4
20240617215020 80 0 0.0 3.0 0.00 0.00 0.00 65 1021.4
20240617214523 80 245 0.0 2.0 0.00 0.00 0.00 66 1021.6
20240617214027 80 277 0.0 3.0 0.00 0.00 0.00 66 1021.5
20240617213524 80 255 0.0 3.0 0.00 0.00 0.00 65 1021.4
20240617213025 80 187 0.0 4.0 0.00 0.00 0.00 65 1021.4
20240617212523 80 249 0.0 5.0 0.00 0.00 0.00 65 1021.4
20240617212023 80 90 0.0 5.0 0.00 0.00 0.00 65 1021.5
20240617211530 80 91 0.0 5.0 0.00 0.00 0.00 64 1021.5
20240617211023 79 252 1.0 4.0 0.00 0.00 0.00 64 1021.5
20240617210522 79 0 0.0 2.0 0.00 0.00 0.00 65 1021.5
20240617210025 79 6 0.0 2.0 0.00 0.00 0.00 66 1021.5
20240617205523 79 0 0.0 4.0 0.00 0.00 0.00 65 1021.6
20240617205023 79 0 0.0 4.0 0.00 0.00 0.00 64 1021.6
20240617204527 80 279 0.0 4.0 0.00 0.00 0.00 64 1021.5
20240617204023 80 268 0.0 4.0 0.00 0.00 0.00 64 1021.6
20240617203523 80 0 1.0 4.0 0.00 0.00 0.00 62 1021.6
20240617203024 80 259 1.0 4.0 0.00 0.00 0.00 62 1021.6
20240617202520 81 304 1.0 3.0 0.00 0.00 0.00 62 1021.5
20240617202020 81 26 0.0 3.0 0.00 0.00 0.00 62 1021.6
20240617201530 81 278 0.0 3.0 0.00 0.00 0.00 63 1021.6
20240617201024 81 47 0.0 3.0 0.00 0.00 0.00 61 1021.7
20240617200524 81 44 0.0 3.0 0.00 0.00 0.00 62 1021.8
20240617200025 81 0 1.0 3.0 0.00 0.00 0.00 61 1021.8
20240617195520 81 309 0.0 3.0 0.00 0.00 0.00 63 1021.8
20240617195023 80 0 1.0 5.0 0.00 0.00 0.00 62 1021.7
20240617194525 80 242 0.0 5.0 0.00 0.00 0.00 63 1021.6
20240617194021 79 271 0.0 5.0 0.00 0.00 0.00 64 1021.6
20240617193521 79 38 0.0 2.0 0.00 0.00 0.00 64 1021.6
20240617193025 78 0 0.0 2.0 0.00 0.00 0.00 66 1021.6
20240617192523 77 263 0.0 1.0 0.00 0.00 0.00 65 1021.6
20240617192023 77 0 0.0 1.0 0.00 0.00 0.00 66 1021.7
20240617191530 77 295 0.0 2.0 0.00 0.00 0.00 65 1021.8
20240617191023 77 0 0.0 2.0 0.00 0.00 0.00 65 1022.0
20240617190525 77 0 0.0 1.0 0.00 0.00 0.00 66 1022.0
20240617190034 77 344 0.0 2.0 0.00 0.00 0.00 66 1021.9
20240617185520 77 344 0.0 2.0 0.00 0.00 0.00 65 1022.0
20240617185022 78 285 0.0 3.0 0.00 0.00 0.00 67 1022.0
20240617184542 77 0 0.0 3.0 0.00 0.00 0.00 65 1022.0
20240617184022 77 344 1.0 3.0 0.00 0.00 0.00 65 1022.2
20240617183522 77 337 0.0 3.0 0.00 0.00 0.00 65 1022.1
20240617183026 78 11 0.0 3.0 0.00 0.00 0.00 65 1022.2
20240617182522 78 301 0.0 2.0 0.00 0.00 0.00 65 1022.3
20240617182023 77 0 0.0 2.0 0.00 0.00 0.00 64 1022.3
20240617181524 77 25 0.0 3.0 0.00 0.00 0.00 65 1022.3
20240617181021 77 0 0.0 3.0 0.00 0.00 0.00 64 1022.4